SV2TW-2 Weather Reports


time (UTC)temp
C
wind
direction
speed
KPH
gust
KPH
rain 1hr
cm
rain 24hr
cm
rain mn
cm
humidity
%
barometer
mb
20260508033704 12 270 1.6 0.0 0.00 0.00 0.00 87 1009.5
20260508033204 12 225 1.6 0.0 0.00 0.00 0.00 88 1009.6
20260508032704 12 225 1.6 0.0 0.00 0.00 0.00 88 1009.6
20260508032204 11 180 3.2 0.0 0.00 0.00 0.00 88 1009.7
20260508031704 11 225 1.6 0.0 0.00 0.00 0.00 88 1009.6
20260508030204 11 225 0.0 0.0 0.00 0.00 0.00 88 1009.4
20260508025204 11 225 1.6 0.0 0.00 0.00 0.00 88 1009.6
20260508024704 11 225 1.6 0.0 0.00 0.00 0.00 87 1009.4
20260508024203 11 225 1.6 0.0 0.00 0.00 0.00 88 1009.3
20260508023204 11 225 1.6 0.0 0.00 0.00 0.00 88 1009.3
20260508022704 11 225 0.0 0.0 0.00 0.00 0.00 88 1009.2
20260508022204 11 225 0.0 0.0 0.00 0.00 0.00 88 1009.2
20260508021704 11 225 1.6 0.0 0.00 0.00 0.00 89 1009.4
20260508021204 11 225 1.6 0.0 0.00 0.00 0.00 89 1009.4
20260508020704 11 225 1.6 0.0 0.00 0.00 0.00 90 1009.5
20260508020204 11 225 0.0 0.0 0.00 0.00 0.00 90 1009.5
20260508015704 11 225 0.0 0.0 0.00 0.00 0.00 90 1009.4
20260508015204 11 225 0.0 0.0 0.00 0.00 0.00 90 1009.7
20260508014204 11 270 0.0 0.0 0.00 0.00 0.00 89 1009.6
20260508013704 11 270 0.0 0.0 0.00 0.00 0.00 89 1009.6
20260508013204 11 225 0.0 0.0 0.00 0.00 0.00 88 1009.6
20260508012704 11 225 1.6 0.0 0.00 0.00 0.00 87 1009.6
20260508012204 11 225 1.6 0.0 0.00 0.00 0.00 87 1009.9
20260508011703 11 225 1.6 0.0 0.00 0.00 0.00 87 1010.0
20260508011204 11 225 1.6 0.0 0.00 0.00 0.00 87 1010.1
20260508010704 11 225 0.0 0.0 0.00 0.00 0.00 86 1010.1
20260508010203 11 225 0.0 0.0 0.00 0.00 0.00 86 1010.0
20260508005704 12 225 0.0 0.0 0.00 0.00 0.00 86 1010.2
20260508005204 12 270 1.6 0.0 0.00 0.00 0.00 86 1010.1
20260508004704 12 225 1.6 0.0 0.00 0.00 0.00 86 1010.0
20260508004204 12 225 0.0 0.0 0.00 0.00 0.00 86 1010.2
20260508003704 12 225 1.6 0.0 0.00 0.00 0.00 86 1010.1
20260508003204 12 225 0.0 0.0 0.00 0.00 0.00 86 1010.2
20260508002704 11 225 1.6 0.0 0.00 0.00 0.00 86 1010.2
20260508002204 11 180 1.6 0.0 0.00 0.00 0.00 85 1010.2
20260508001704 11 225 1.6 0.0 0.00 0.00 0.00 84 1010.2
20260508001204 11 225 1.6 0.0 0.00 0.00 0.00 84 1010.3
20260508000704 11 225 1.6 0.0 0.00 0.00 0.00 83 1010.3
20260508000205 11 225 1.6 0.0 0.00 0.00 0.00 82 1010.3
20260507235704 11 225 1.6 0.0 0.00 0.00 0.00 82 1010.6
20260507235204 11 225 1.6 0.0 0.00 0.00 0.00 81 1010.6
20260507234704 11 225 1.6 0.0 0.00 0.00 0.00 81 1010.4
20260507233704 12 225 3.2 0.0 0.00 0.00 0.00 82 1010.8
20260507233203 11 180 1.6 0.0 0.00 0.00 0.00 81 1010.6
20260507232204 11 225 0.0 0.0 0.00 0.00 0.00 79 1010.9
20260507231704 11 225 1.6 0.0 0.00 0.00 0.00 79 1010.8
20260507231204 12 225 1.6 0.0 0.00 0.00 0.00 79 1011.0
20260507230704 12 225 0.0 0.0 0.00 0.00 0.00 79 1011.0
20260507230204 12 225 1.6 0.0 0.00 0.00 0.00 79 1010.9
20260507225704 12 180 0.0 0.0 0.00 0.00 0.00 80 1011.1
20260507225204 12 225 1.6 0.0 0.00 0.00 0.00 79 1011.0
20260507224704 12 225 0.0 0.0 0.00 0.00 0.00 78 1011.1
20260507224204 12 248 3.2 0.0 0.00 0.00 0.00 78 1011.2
20260507223704 12 225 0.0 0.0 0.00 0.00 0.00 74 1011.2
20260507223205 12 225 0.0 0.0 0.00 0.00 0.00 73 1011.1
20260507222704 12 225 1.6 0.0 0.00 0.00 0.00 73 1011.1
20260507222204 13 225 1.6 0.0 0.00 0.00 0.00 73 1011.1
20260507221704 13 225 1.6 0.0 0.00 0.00 0.00 73 1011.0
20260507221204 13 270 3.2 0.0 0.00 0.00 0.00 72 1011.1
20260507220704 13 225 3.2 0.0 0.00 0.00 0.00 72 1011.1
20260507215704 13 0 1.6 0.0 0.00 0.00 0.00 72 1011.0
20260507215203 13 225 1.6 0.0 0.00 0.00 0.00 72 1011.1
20260507214704 13 225 3.2 0.0 0.00 0.00 0.00 73 1011.0
20260507214204 13 225 3.2 0.0 0.00 0.00 0.00 74 1011.0
20260507213704 13 180 3.2 0.0 0.00 0.00 0.00 74 1011.1
20260507212704 13 225 3.2 0.0 0.00 0.00 0.00 73 1011.0
20260507212204 13 225 0.0 0.0 0.00 0.00 0.00 73 1011.0
20260507211704 13 225 3.2 0.0 0.00 0.00 0.00 73 1011.0
20260507211204 13 225 3.2 0.0 0.00 0.00 0.00 74 1010.9
20260507210704 13 203 0.0 0.0 0.00 0.00 0.00 77 1010.7
20260507210204 13 270 1.6 0.0 0.00 0.00 0.00 77 1010.8
20260507204704 13 270 3.2 0.0 0.00 0.00 0.00 77 1010.7
20260507204204 13 225 0.0 0.0 0.00 0.00 0.00 77 1010.8
20260507203703 13 225 0.0 0.0 0.00 0.00 0.00 77 1010.8
20260507203204 13 180 0.0 0.0 0.00 0.00 0.00 77 1010.8
20260507202704 13 225 1.6 0.0 0.00 0.00 0.00 77 1010.9
20260507202204 13 180 3.2 0.0 0.00 0.00 0.00 77 1010.8
20260507201704 13 225 1.6 0.0 0.00 0.00 0.00 77 1010.9
20260507201204 13 225 0.0 0.0 0.00 0.00 0.00 78 1010.8
20260507200704 13 225 0.0 0.0 0.00 0.00 0.00 77 1010.9
20260507200204 13 225 0.0 0.0 0.00 0.00 0.00 77 1010.9
20260507195703 13 225 0.0 0.0 0.00 0.00 0.00 77 1011.0
20260507195204 13 270 1.6 0.0 0.00 0.00 0.00 78 1011.0
20260507194704 13 270 3.2 0.0 0.00 0.00 0.00 79 1010.9
20260507193704 13 225 3.2 0.0 0.00 0.00 0.00 80 1011.0
20260507193204 13 45 3.2 0.0 0.00 0.00 0.00 80 1010.9
20260507192704 13 180 3.2 0.0 0.00 0.00 0.00 80 1010.9
20260507192204 13 270 3.2 0.0 0.00 0.00 0.00 79 1011.0
20260507191703 14 180 0.0 0.0 0.00 0.00 0.00 78 1010.9
20260507191204 14 270 3.2 0.0 0.00 0.00 0.00 76 1010.9
20260507190204 15 135 1.6 0.0 0.00 0.00 0.00 75 1011.0
20260507185704 15 225 3.2 0.0 0.00 0.00 0.00 75 1010.8
20260507185204 15 135 3.2 0.0 0.00 0.00 0.00 75 1010.8
20260507184704 15 45 0.0 0.0 0.00 0.00 0.00 76 1010.8
20260507184204 15 225 1.6 0.0 0.00 0.00 0.00 77 1011.0
20260507183704 15 270 3.2 0.0 0.00 0.00 0.00 80 1010.8
20260507183204 15 225 6.4 0.0 0.00 0.00 0.00 81 1010.9
20260507182704 15 270 1.6 0.0 0.00 0.00 0.00 81 1010.8
20260507182204 15 270 3.2 0.0 0.00 0.00 0.00 80 1010.8
20260507181704 15 158 1.6 0.0 0.00 0.00 0.00 80 1010.6
20260507181204 15 315 3.2 0.0 0.00 0.00 0.00 80 1010.3
20260507180704 15 0.0 0.0 0.00 0.00 0.00 78
20260507180204 15 180 0.0 0.0 0.00 0.00 0.00 78 1010.2
20260507175704 16 135 1.6 0.0 0.00 0.00 0.00 78 1010.2
20260507175204 16 135 3.2 0.0 0.00 0.00 0.00 78 1010.2
20260507174204 16 180 4.8 0.0 0.00 0.00 0.00 78 1010.1
20260507173204 16 45 3.2 0.0 0.00 0.00 0.00 77 1010.0
20260507172704 16 135 3.2 0.0 0.00 0.00 0.00 76 1010.3
20260507171704 16 270 0.0 0.0 0.00 0.00 0.00 76 1010.4
20260507171204 16 270 1.6 0.0 0.00 0.00 0.00 75 1010.8
20260507170704 16 180 0.0 0.0 0.00 0.00 0.00 75 1010.7
20260507170204 16 225 1.6 0.0 0.00 0.00 0.00 75 1010.6
20260507165204 17 270 0.0 0.0 0.00 0.00 0.00 73 1010.6
20260507164704 17 0 1.6 0.0 0.00 0.00 0.00 72 1010.6
20260507164204 17 225 0.0 0.0 0.00 0.00 0.00 72 1010.6
20260507163704 17 180 1.6 0.0 0.00 0.00 0.00 71 1010.6
20260507163204 17 180 1.6 0.0 0.00 0.00 0.00 72 1010.4
20260507162704 17 45 3.2 0.0 0.00 0.00 0.00 72 1010.6
20260507162204 17 338 3.2 0.0 0.00 0.00 0.00 68 1010.4
20260507161704 17 45 3.2 0.0 0.00 0.00 0.00 68 1010.8
20260507161204 17 270 3.2 0.0 0.00 0.00 0.00 68 1010.6
20260507160204 17 90 0.0 0.0 0.00 0.00 0.00 70 1010.6
20260507155704 17 90 1.6 0.0 0.00 0.00 0.00 70 1010.6
20260507155204 17 270 0.0 0.0 0.00 0.00 0.00 69 1010.9
20260507154703 17 45 3.2 0.0 0.00 0.00 0.00 68 1010.9
20260507154204 17 135 3.2 0.0 0.00 0.00 0.00 67 1010.7
20260507153705 17 225 4.8 0.0 0.00 0.00 0.00 68 1011.0
20260507153204 17 135 6.4 0.0 0.00 0.00 0.00 68 1011.0
20260507152704 17 90 1.6 0.0 0.00 0.00 0.00 67 1010.9
20260507151704 18 135 3.2 0.0 0.00 0.00 0.00 65 1010.9
20260507151204 18 225 0.0 0.0 0.00 0.00 0.00 64 1011.1
20260507150704 18 90 3.2 0.0 0.00 0.00 0.00 64 1011.1
20260507150203 19 90 1.6 0.0 0.00 0.00 0.00 64 1011.2
20260507145704 19 135 4.8 0.0 0.00 0.00 0.00 63 1010.9
20260507145204 19 135 3.2 0.0 0.00 0.00 0.00 62 1010.8
20260507144704 19 158 3.2 0.0 0.00 0.00 0.00 61 1010.8
20260507144204 19 90 3.2 0.0 0.00 0.00 0.00 61 1010.9
20260507143704 20 135 1.6 0.0 0.00 0.00 0.00 61 1010.9
20260507143204 19 180 1.6 0.0 0.00 0.00 0.00 61 1011.0
20260507142704 19 180 1.6 0.0 0.00 0.00 0.00 62 1011.0
20260507141704 18 45 3.2 0.0 0.00 0.00 0.00 63 1010.6
20260507141204 18 90 4.8 0.0 0.00 0.00 0.00 63 1010.8
20260507140204 18 45 6.4 0.0 0.00 0.00 0.00 62 1010.8
20260507135704 19 45 6.4 0.0 0.00 0.00 0.00 64 1010.9
20260507135204 18 135 4.8 0.0 0.00 0.00 0.00 71 1010.8
20260507134704 18 180 1.6 0.0 0.00 0.00 0.00 72 1010.7
20260507133704 17 135 3.2 0.0 0.00 0.00 0.00 77 1010.8
20260507133204 17 135 3.2 0.0 0.00 0.00 0.00 77 1010.9
20260507132704 16 225 3.2 0.0 0.00 0.00 0.00 77 1010.9
20260507132204 16 135 3.2 0.0 0.00 0.00 0.00 77 1011.1
20260507131704 17 180 3.2 0.0 0.00 0.00 0.00 78 1011.1
20260507131205 17 68 4.8 0.0 0.00 0.00 0.00 77 1011.0
20260507130704 17 135 3.2 0.0 0.00 0.00 0.00 78 1011.3
20260507130204 17 45 1.6 0.0 0.00 0.00 0.00 78 1011.3
20260507125704 17 45 1.6 0.0 0.00 0.00 0.00 78 1011.4
20260507125204 17 0 4.8 0.0 0.00 0.00 0.00 76 1011.5
20260507124704 17 45 3.2 0.0 0.00 0.00 0.00 77 1011.7
20260507124203 17 90 3.2 0.0 0.00 0.00 0.00 81 1011.9
20260507123704 16 135 3.2 0.0 0.00 0.00 0.00 82 1012.0
20260507123204 16 270 1.6 0.0 0.00 0.00 0.00 82 1012.1
20260507122705 16 0 1.6 0.0 0.00 0.00 0.00 81 1012.1
20260507122204 16 315 6.4 0.0 0.00 0.00 0.00 82 1012.2
20260507121204 16 270 3.2 0.0 0.00 0.00 0.00 82 1012.3
20260507120703 16 315 3.2 0.0 0.00 0.00 0.00 81 1012.3
20260507120204 16 0 3.2 0.0 0.00 0.00 0.00 81 1012.4
20260507115704 16 0 3.2 0.0 0.00 0.00 0.00 80 1012.6
20260507115204 16 315 3.2 0.0 0.00 0.00 0.00 80 1012.6
20260507114704 16 315 4.8 0.0 0.00 0.00 0.00 79 1012.8
20260507114204 16 270 3.2 0.0 0.00 0.00 0.00 78 1012.9
20260507113704 16 270 3.2 0.0 0.00 0.00 0.00 77 1012.9
20260507113204 16 270 3.2 0.0 0.00 0.00 0.00 76 1012.9
20260507112704 17 270 3.2 0.0 0.00 0.00 0.00 75 1012.8
20260507112204 17 270 1.6 0.0 0.00 0.00 0.00 75 1012.8
20260507111704 17 315 1.6 0.0 0.00 0.00 0.00 74 1012.5
20260507111204 17 315 1.6 0.0 0.00 0.00 0.00 70 1012.8
20260507110204 18 270 4.8 0.0 0.00 0.00 0.00 65 1012.5
20260507105704 18 180 3.2 0.0 0.00 0.00 0.00 65 1012.9
20260507105204 18 315 4.8 0.0 0.00 0.00 0.00 67 1012.6
20260507104704 18 0 4.8 0.0 0.00 0.00 0.00 68 1012.4
20260507104204 18 315 4.8 0.0 0.00 0.00 0.00 67 1012.8
20260507103704 18 315 3.2 0.0 0.00 0.00 0.00 68 1012.5
20260507103204 18 315 4.8 0.0 0.00 0.00 0.00 67 1012.5
20260507102703 18 315 6.4 0.0 0.00 0.00 0.00 65 1012.5
20260507102204 18 315 9.7 0.0 0.00 0.00 0.00 64 1012.5
20260507101704 18 270 3.2 0.0 0.00 0.00 0.00 65 1012.4
20260507101204 18 315 8.0 0.0 0.00 0.00 0.00 65 1012.4
20260507100704 18 0 6.4 0.0 0.00 0.00 0.00 65 1012.5
20260507095704 18 315 4.8 0.0 0.00 0.00 0.00 61 1012.2
20260507094704 19 270 3.2 0.0 0.00 0.00 0.00 59 1012.1
20260507094204 19 315 6.4 0.0 0.00 0.00 0.00 58 1012.2
20260507093204 19 270 3.2 0.0 0.00 0.00 0.00 60 1011.9
20260507092703 19 315 1.6 0.0 0.00 0.00 0.00 60 1011.9
20260507091704 20 225 3.2 0.0 0.00 0.00 0.00 58 1011.9
20260507091204 20 135 3.2 0.0 0.00 0.00 0.00 55 1011.7
20260507090703 20 135 3.2 0.0 0.00 0.00 0.00 56 1011.7
20260507090204 20 135 3.2 0.0 0.00 0.00 0.00 55 1011.7
20260507085704 19 135 3.2 0.0 0.00 0.00 0.00 55 1011.6
20260507085204 19 45 3.2 0.0 0.00 0.00 0.00 55 1011.6
20260507084204 19 90 1.6 0.0 0.00 0.00 0.00 54 1011.5
20260507083704 19 45 6.4 0.0 0.00 0.00 0.00 53 1011.4
20260507083204 20 45 4.8 0.0 0.00 0.00 0.00 52 1011.5
20260507082204 21 0 1.6 0.0 0.00 0.00 0.00 53 1011.4
20260507081704 20 135 3.2 0.0 0.00 0.00 0.00 52 1011.4
20260507081204 20 135 3.2 0.0 0.00 0.00 0.00 53 1011.2
20260507080704 20 45 1.6 0.0 0.00 0.00 0.00 53 1011.3
20260507080204 19 90 3.2 0.0 0.00 0.00 0.00 52 1011.4
20260507075704 19 0 1.6 0.0 0.00 0.00 0.00 51 1011.0
20260507075204 19 45 3.2 0.0 0.00 0.00 0.00 51 1011.2
20260507074704 20 45 6.4 0.0 0.00 0.00 0.00 50 1011.2
20260507074204 20 90 0.0 0.0 0.00 0.00 0.00 52 1011.1
20260507073704 20 45 4.8 0.0 0.00 0.00 0.00 52 1011.0
20260507072703 20 135 3.2 0.0 0.00 0.00 0.00 53 1010.9
20260507072204 20 45 3.2 0.0 0.00 0.00 0.00 51 1011.1
20260507071704 20 45 1.6 0.0 0.00 0.00 0.00 50 1011.0
20260507071205 20 45 3.2 0.0 0.00 0.00 0.00 51 1011.2
20260507070704 20 45 3.2 0.0 0.00 0.00 0.00 50 1011.1
20260507070204 20 45 4.8 0.0 0.00 0.00 0.00 50 1011.2
20260507065705 20 0 3.2 0.0 0.00 0.00 0.00 49 1011.2
20260507065203 20 135 3.2 0.0 0.00 0.00 0.00 50 1011.2
20260507064704 20 45 3.2 0.0 0.00 0.00 0.00 50 1011.2
20260507064204 20 45 3.2 0.0 0.00 0.00 0.00 49 1011.1
20260507063204 21 180 3.2 0.0 0.00 0.00 0.00 46 1011.2
20260507062704 21 45 3.2 0.0 0.00 0.00 0.00 47 1011.3
20260507062205 20 45 3.2 0.0 0.00 0.00 0.00 46 1011.3
20260507061704 20 45 3.2 0.0 0.00 0.00 0.00 43 1011.1
20260507055706 22 90 1.6 0.0 0.00 0.00 0.00 46 1011.0
20260507055204 21 158 1.6 0.0 0.00 0.00 0.00 46 1011.1
20260507054704 21 135 3.2 0.0 0.00 0.00 0.00 45 1011.1
20260507054204 21 135 0.0 0.0 0.00 0.00 0.00 47 1011.0
20260507053704 20 225 0.0 0.0 0.00 0.00 0.00 51 1011.0
20260507053204 20 90 1.6 0.0 0.00 0.00 0.00 52 1011.1
20260507052703 19 90 1.6 0.0 0.00 0.00 0.00 52 1011.0
20260507052205 19 45 3.2 0.0 0.00 0.00 0.00 53 1011.0
20260507051704 19 135 0.0 0.0 0.00 0.00 0.00 53 1011.1
20260507051204 18 135 0.0 0.0 0.00 0.00 0.00 54 1011.1
20260507050704 18 135 0.0 0.0 0.00 0.00 0.00 55 1010.9
20260507050204 17 180 1.6 0.0 0.00 0.00 0.00 58 1011.0
20260507045704 16 180 1.6 0.0 0.00 0.00 0.00 64 1011.0
20260507045203 16 180 3.2 0.0 0.00 0.00 0.00 65 1011.1
20260507044704 15 180 0.0 0.0 0.00 0.00 0.00 70 1010.9
20260507044204 13 180 0.0 0.0 0.00 0.00 0.00 70 1010.8
20260507043704 13 225 0.0 0.0 0.00 0.00 0.00 71 1010.7
20260507043204 12 225 0.0 0.0 0.00 0.00 0.00 70 1010.7
20260507042704 12 225 0.0 0.0 0.00 0.00 0.00 72 1010.7
20260507042205 12 225 0.0 0.0 0.00 0.00 0.00 72 1010.6
20260507041704 12 225 0.0 0.0 0.00 0.00 0.00 73 1010.6
20260507041204 12 225 1.6 0.0 0.00 0.00 0.00 73 1010.4
20260507040704 12 225 1.6 0.0 0.00 0.00 0.00 73 1010.6
20260507040204 12 225 1.6 0.0 0.00 0.00 0.00 75 1010.4
20260507035704 12 225 1.6 0.0 0.00 0.00 0.00 75 1010.4
20260507035204 11 225 1.6 0.0 0.00 0.00 0.00 75 1010.3
20260507034704 11 225 3.2 0.0 0.00 0.00 0.00 75 1010.6